RUK198P EGCC-GMTT

Flight info

Callsign RUK198P
Flight time 2h 58m
Altitude 23000
Route KUXEM P17 BEPHE/N0440F360 DCT OSSEP DCT ELNIF DCT ZESPE DCT KLAKI DCT SALCO/N0437F370 DCT GOPIN DCT DELOG DCT VADOX DCT SNR DCT TITAN DCT RATAS DCT NEA DCT NONTU DCT ORBIS DCT DISKO DCT TLD DCT DOPEN DCT MONTO DCT MOLIN DCT VJF N10 LINTO DCT NOLRO
Aircraft B738/M-SDE2E3FGHIRWXY/LB1

Departure

Time 2026-04-17 03:15
Airport Manchester Airport (EGCC)

Arrival

Time 2026-04-17 06:14
Airport Tangier Ibn Battuta Airport (GMTT)
Time Latitude Longitude Altitude Speed Heading
2026-04-17 02:44 53.35951 -2.27138 260 ft 0 kts 89°
2026-04-17 03:04 53.35951 -2.27150 259 ft 2 kts 77°
2026-04-17 03:04 53.35947 -2.27176 259 ft 2 kts 78°
2026-04-17 03:04 53.35944 -2.27202 259 ft 2 kts 98°
2026-04-17 03:05 53.35951 -2.27226 259 ft 2 kts 139°
2026-04-17 03:05 53.35965 -2.27237 259 ft 0 kts 174°
2026-04-17 03:05 53.35971 -2.27237 259 ft 1 kts 180°
2026-04-17 03:05 53.35973 -2.27237 259 ft 0 kts 179°
2026-04-17 03:08 53.35968 -2.27237 259 ft 1 kts 180°
2026-04-17 03:08 53.35944 -2.27236 259 ft 4 kts 174°
2026-04-17 03:08 53.35898 -2.27227 259 ft 8 kts 172°
2026-04-17 03:09 53.35831 -2.27197 259 ft 9 kts 143°
2026-04-17 03:09 53.35772 -2.27157 259 ft 6 kts 197°
2026-04-17 03:09 53.35727 -2.27233 259 ft 10 kts 230°
2026-04-17 03:09 53.35674 -2.27342 259 ft 13 kts 231°
2026-04-17 03:10 53.35609 -2.27475 259 ft 15 kts 232°
2026-04-17 03:10 53.35535 -2.27628 259 ft 16 kts 230°
2026-04-17 03:10 53.35463 -2.27791 259 ft 14 kts 251°
2026-04-17 03:10 53.35435 -2.27953 259 ft 13 kts 229°
2026-04-17 03:11 53.35358 -2.28078 259 ft 15 kts 224°
2026-04-17 03:11 53.35265 -2.28194 259 ft 15 kts 185°
2026-04-17 03:11 53.35164 -2.28199 259 ft 13 kts 179°
2026-04-17 03:11 53.35078 -2.28117 259 ft 14 kts 146°
2026-04-17 03:12 53.35000 -2.28019 259 ft 10 kts 141°
2026-04-17 03:12 53.34938 -2.27935 259 ft 12 kts 142°
2026-04-17 03:12 53.34891 -2.27870 259 ft 0 kts 139°
2026-04-17 03:13 53.34883 -2.27858 259 ft 3 kts 139°
2026-04-17 03:14 53.34847 -2.27814 259 ft 8 kts 155°
2026-04-17 03:14 53.34775 -2.27809 259 ft 11 kts 219°
2026-04-17 03:14 53.34752 -2.27851 259 ft 4 kts 232°
2026-04-17 03:14 53.34581 -2.28189 259 ft 72 kts 233°
2026-04-17 03:15 53.34124 -2.29155 259 ft 132 kts 231°
2026-04-17 03:15 53.33431 -2.30597 421 ft 165 kts 230°
2026-04-17 03:15 53.32711 -2.32154 967 ft 172 kts 227°
2026-04-17 03:15 53.31907 -2.33732 1667 ft 173 kts 233°
2026-04-17 03:16 53.31578 -2.35600 2498 ft 165 kts 266°
2026-04-17 03:16 53.31786 -2.37610 2856 ft 181 kts 276°
2026-04-17 03:16 53.32086 -2.39914 2985 ft 209 kts 276°
2026-04-17 03:16 53.32407 -2.42441 3442 ft 222 kts 274°
2026-04-17 03:17 53.32398 -2.45130 3830 ft 230 kts 252°
2026-04-17 03:17 53.31861 -2.47795 4460 ft 235 kts 247°
2026-04-17 03:17 53.31322 -2.50448 5003 ft 241 kts 249°
2026-04-17 03:17 53.30798 -2.53200 4952 ft 240 kts 249°
2026-04-17 03:18 53.30306 -2.55884 4987 ft 234 kts 250°
2026-04-17 03:18 53.29811 -2.58543 5009 ft 236 kts 249°
2026-04-17 03:18 53.29174 -2.61152 4955 ft 234 kts 242°
2026-04-17 03:18 53.28410 -2.63686 4968 ft 233 kts 240°
2026-04-17 03:19 53.27329 -2.65802 5036 ft 238 kts 215°
2026-04-17 03:19 53.25914 -2.67337 5868 ft 235 kts 214°
2026-04-17 03:19 53.24512 -2.68896 6604 ft 237 kts 215°
2026-04-17 03:19 53.23149 -2.70470 7339 ft 239 kts 216°
2026-04-17 03:20 53.21759 -2.72074 8084 ft 240 kts 216°
2026-04-17 03:20 53.20367 -2.73673 8770 ft 243 kts 216°
2026-04-17 03:20 53.18945 -2.75300 9434 ft 247 kts 215°
2026-04-17 03:20 53.17491 -2.76972 10179 ft 249 kts 216°
2026-04-17 03:21 53.15987 -2.78718 10428 ft 269 kts 216°
2026-04-17 03:21 53.14336 -2.80627 10604 ft 291 kts 216°
2026-04-17 03:21 53.12583 -2.82639 10970 ft 305 kts 216°
2026-04-17 03:21 53.10814 -2.84672 11621 ft 309 kts 216°
2026-04-17 03:22 53.08984 -2.86677 12244 ft 315 kts 210°
2026-04-17 03:22 53.06834 -2.87870 12915 ft 325 kts 190°
2026-04-17 03:22 53.04493 -2.87605 13622 ft 335 kts 175°
2026-04-17 03:22 53.02156 -2.86890 14275 ft 339 kts 174°
2026-04-17 03:23 52.99761 -2.86182 14906 ft 343 kts 175°
2026-04-17 03:23 52.97321 -2.85515 15674 ft 344 kts 175°
2026-04-17 03:23 52.94865 -2.84847 16250 ft 350 kts 175°
2026-04-17 03:23 52.92370 -2.84153 16934 ft 353 kts 175°
2026-04-17 03:24 52.89887 -2.83487 17520 ft 356 kts 176°
2026-04-17 03:24 52.87340 -2.82830 18154 ft 360 kts 175°
2026-04-17 03:24 52.84846 -2.82139 18845 ft 361 kts 175°
2026-04-17 03:24 52.82332 -2.81444 19445 ft 363 kts 175°
2026-04-17 03:25 52.79758 -2.80740 20116 ft 364 kts 175°
2026-04-17 03:25 52.77209 -2.80049 20717 ft 366 kts 175°
2026-04-17 03:25 52.74618 -2.79348 21365 ft 367 kts 175°
2026-04-17 03:25 52.72065 -2.78659 21974 ft 367 kts 176°
2026-04-17 03:26 52.69514 -2.77975 22556 ft 369 kts 176°
2026-04-17 03:26 52.66903 -2.77275 23084 ft 371 kts 176°
2026-04-17 03:26 52.64266 -2.76584 23660 ft 371 kts 177°
2026-04-17 03:26 52.61671 -2.76150 24213 ft 368 kts 182°
2026-04-17 03:27 52.59045 -2.76141 24703 ft 368 kts 186°
2026-04-17 03:27 52.56457 -2.76294 25200 ft 369 kts 186°
2026-04-17 03:27 52.53836 -2.76484 25733 ft 369 kts 187°
2026-04-17 03:27 52.51246 -2.76687 26163 ft 371 kts 187°
2026-04-17 03:28 52.48621 -2.76899 26630 ft 372 kts 187°
2026-04-17 03:28 52.46017 -2.77113 27060 ft 374 kts 187°
2026-04-17 03:28 52.43367 -2.77334 27487 ft 376 kts 187°
2026-04-17 03:28 52.40712 -2.77558 27915 ft 377 kts 187°
2026-04-17 03:29 52.38052 -2.77788 28345 ft 378 kts 187°
2026-04-17 03:29 52.35413 -2.78013 28744 ft 379 kts 187°
2026-04-17 03:29 52.32732 -2.78240 29237 ft 378 kts 187°
2026-04-17 03:29 52.30060 -2.78471 29792 ft 374 kts 187°
2026-04-17 03:30 52.27449 -2.78693 30280 ft 372 kts 187°
2026-04-17 03:30 52.24821 -2.78917 30736 ft 371 kts 187°
2026-04-17 03:30 52.22207 -2.79142 31139 ft 371 kts 187°
2026-04-17 03:30 52.19564 -2.79371 31546 ft 371 kts 187°
2026-04-17 03:31 52.16910 -2.79597 31932 ft 370 kts 187°
2026-04-17 03:31 52.14285 -2.79825 32317 ft 370 kts 187°
2026-04-17 03:31 52.11618 -2.80056 32692 ft 370 kts 187°
2026-04-17 03:31 52.08936 -2.80284 33064 ft 369 kts 187°
2026-04-17 03:32 52.06288 -2.80508 33402 ft 369 kts 187°
2026-04-17 03:32 52.03634 -2.80737 33788 ft 368 kts 187°
2026-04-17 03:32 52.00981 -2.80963 34107 ft 368 kts 187°
2026-04-17 03:32 51.98354 -2.81175 34455 ft 368 kts 187°
2026-04-17 03:33 51.95738 -2.81384 34772 ft 366 kts 188°
2026-04-17 03:33 51.93072 -2.81608 35043 ft 366 kts 188°
2026-04-17 03:33 51.90435 -2.81836 35301 ft 368 kts 188°
2026-04-17 03:33 51.87843 -2.82060 35595 ft 368 kts 188°
2026-04-17 03:34 51.85223 -2.82296 35909 ft 367 kts 189°
2026-04-17 03:34 51.82617 -2.82757 36180 ft 366 kts 192°
2026-04-17 03:34 51.80022 -2.83340 36466 ft 366 kts 192°
2026-04-17 03:34 51.77406 -2.83935 36718 ft 367 kts 192°
2026-04-17 03:35 51.74839 -2.84509 36993 ft 367 kts 192°
2026-04-17 03:35 51.72317 -2.85065 37140 ft 369 kts 192°
2026-04-17 03:35 51.67071 -2.86200 37127 ft 368 kts 192°
2026-04-17 03:36 51.59295 -2.87867 37129 ft 364 kts 192°
2026-04-17 03:37 51.54103 -2.88975 37128 ft 366 kts 192°
2026-04-17 03:37 51.48896 -2.90081 37126 ft 367 kts 192°
2026-04-17 03:38 51.43692 -2.91181 37125 ft 366 kts 192°
2026-04-17 03:38 51.38464 -2.92284 37123 ft 366 kts 192°
2026-04-17 03:39 51.33199 -2.93393 37122 ft 366 kts 192°
2026-04-17 03:39 51.27992 -2.94482 37121 ft 367 kts 192°
2026-04-17 03:40 51.22759 -2.95579 37119 ft 366 kts 192°
2026-04-17 03:40 51.17533 -2.96673 37119 ft 365 kts 192°
2026-04-17 03:41 51.12292 -2.97768 37117 ft 366 kts 192°
2026-04-17 03:41 51.09660 -2.98313 36921 ft 371 kts 192°
2026-04-17 03:41 51.07029 -2.98860 36749 ft 366 kts 192°
2026-04-17 03:42 51.01887 -2.99921 37082 ft 353 kts 192°
2026-04-17 03:42 50.96698 -3.01006 37120 ft 365 kts 192°
2026-04-17 03:43 50.91383 -3.02108 37122 ft 368 kts 192°
2026-04-17 03:43 50.86080 -3.03195 37127 ft 366 kts 192°
2026-04-17 03:44 50.80799 -3.04281 37128 ft 365 kts 192°
2026-04-17 03:44 50.75551 -3.05360 37128 ft 366 kts 192°
2026-04-17 03:45 50.70261 -3.06445 37128 ft 366 kts 192°
2026-04-17 03:45 50.64967 -3.07526 37128 ft 366 kts 192°
2026-04-17 03:46 50.59666 -3.08605 37127 ft 365 kts 192°
2026-04-17 03:46 50.54384 -3.09680 37128 ft 365 kts 192°
2026-04-17 03:47 50.49124 -3.10749 37128 ft 365 kts 192°
2026-04-17 03:47 50.43894 -3.11806 37127 ft 365 kts 193°
2026-04-17 03:48 50.38634 -3.13019 37127 ft 363 kts 196°
2026-04-17 03:48 50.33598 -3.15496 37129 ft 359 kts 204°
2026-04-17 03:49 50.28795 -3.18489 37128 ft 359 kts 205°
2026-04-17 03:49 50.23948 -3.21549 37128 ft 360 kts 205°
2026-04-17 03:50 50.19102 -3.24604 37141 ft 360 kts 205°
2026-04-17 03:50 50.14252 -3.27662 37157 ft 360 kts 205°
2026-04-17 03:51 50.09391 -3.30723 37173 ft 360 kts 205°
2026-04-17 03:51 50.04553 -3.33757 37182 ft 361 kts 205°
2026-04-17 03:52 49.99719 -3.36789 37181 ft 361 kts 205°
2026-04-17 03:52 49.94895 -3.39801 37181 ft 359 kts 205°
2026-04-17 03:53 49.90093 -3.42799 37182 ft 359 kts 205°
2026-04-17 03:53 49.85242 -3.45823 37182 ft 360 kts 205°
2026-04-17 03:54 49.80399 -3.48833 37182 ft 360 kts 205°
2026-04-17 03:54 49.75600 -3.51716 37181 ft 361 kts 202°
2026-04-17 03:55 49.70461 -3.53173 37184 ft 369 kts 190°
2026-04-17 03:55 49.65132 -3.53507 37182 ft 371 kts 189°
2026-04-17 03:56 49.59800 -3.53806 37182 ft 371 kts 189°
2026-04-17 03:56 49.54493 -3.54111 36887 ft 371 kts 189°
2026-04-17 03:57 49.49241 -3.54409 36965 ft 362 kts 189°
2026-04-17 03:57 49.46662 -3.54559 37206 ft 362 kts 189°
2026-04-17 03:57 49.44068 -3.54716 37179 ft 368 kts 189°
2026-04-17 03:58 49.38725 -3.55033 37176 ft 372 kts 189°
2026-04-17 03:58 49.33374 -3.55341 37168 ft 369 kts 189°
2026-04-17 03:59 49.28062 -3.55647 37161 ft 367 kts 189°
2026-04-17 03:59 49.22719 -3.55958 37160 ft 367 kts 189°
2026-04-17 04:00 49.17455 -3.56263 37159 ft 367 kts 189°
2026-04-17 04:00 49.12175 -3.56570 37159 ft 367 kts 189°
2026-04-17 04:01 49.06840 -3.56878 37160 ft 367 kts 189°
2026-04-17 04:01 49.01530 -3.57184 37158 ft 367 kts 189°
2026-04-17 04:02 48.96219 -3.57487 37157 ft 366 kts 189°
2026-04-17 04:02 48.90990 -3.57786 37157 ft 366 kts 189°
2026-04-17 04:03 48.85746 -3.58087 37157 ft 366 kts 189°
2026-04-17 04:03 48.80498 -3.58386 37157 ft 366 kts 189°
2026-04-17 04:04 48.75263 -3.58687 37156 ft 366 kts 189°
2026-04-17 04:04 48.70045 -3.58983 37156 ft 366 kts 189°
2026-04-17 04:05 48.64750 -3.59280 37155 ft 365 kts 189°
2026-04-17 04:05 48.59513 -3.59576 37156 ft 365 kts 190°
2026-04-17 04:06 48.54236 -3.59877 37155 ft 366 kts 189°
2026-04-17 04:06 48.48959 -3.60176 37155 ft 366 kts 189°
2026-04-17 04:07 48.43635 -3.60475 37125 ft 366 kts 190°
2026-04-17 04:07 48.38348 -3.60770 37075 ft 365 kts 190°
2026-04-17 04:08 48.33057 -3.61067 37027 ft 364 kts 190°
2026-04-17 04:08 48.27778 -3.61362 37008 ft 364 kts 190°
2026-04-17 04:09 48.22493 -3.61653 37011 ft 364 kts 190°
2026-04-17 04:09 48.17216 -3.61951 37013 ft 365 kts 190°
2026-04-17 04:10 48.11912 -3.62248 37015 ft 365 kts 190°
2026-04-17 04:10 48.06619 -3.62542 37018 ft 366 kts 189°
2026-04-17 04:11 48.01359 -3.62835 37020 ft 365 kts 190°
2026-04-17 04:11 47.96158 -3.63121 36973 ft 364 kts 190°
2026-04-17 04:12 47.90924 -3.63404 37006 ft 362 kts 190°
2026-04-17 04:12 47.88350 -3.63545 37153 ft 360 kts 190°
2026-04-17 04:12 47.85739 -3.63693 37216 ft 365 kts 190°
2026-04-17 04:13 47.80467 -3.63987 37204 ft 369 kts 189°
2026-04-17 04:13 47.75208 -3.64272 37206 ft 365 kts 189°
2026-04-17 04:14 47.69993 -3.64557 37208 ft 364 kts 189°
2026-04-17 04:14 47.64770 -3.64841 37209 ft 365 kts 189°
2026-04-17 04:15 47.59549 -3.65120 37209 ft 366 kts 189°
2026-04-17 04:15 47.54294 -3.65393 37209 ft 366 kts 189°
2026-04-17 04:16 47.49076 -3.65669 37209 ft 366 kts 189°
2026-04-17 04:16 47.43947 -3.65944 37209 ft 365 kts 189°
2026-04-17 04:17 47.38824 -3.66224 37208 ft 365 kts 189°
2026-04-17 04:17 47.33706 -3.66497 37209 ft 364 kts 189°
2026-04-17 04:18 47.28621 -3.66771 37209 ft 364 kts 188°
2026-04-17 04:18 47.23539 -3.67045 37208 ft 364 kts 188°
2026-04-17 04:19 47.18373 -3.67320 37209 ft 364 kts 188°
2026-04-17 04:19 47.13106 -3.67601 37208 ft 364 kts 188°
2026-04-17 04:20 47.07896 -3.67880 37209 ft 364 kts 188°
2026-04-17 04:20 47.02645 -3.68217 37209 ft 362 kts 190°
2026-04-17 04:21 46.97499 -3.68835 37209 ft 361 kts 191°
2026-04-17 04:21 46.92304 -3.69469 37209 ft 361 kts 191°
2026-04-17 04:22 46.87163 -3.70088 37209 ft 363 kts 191°
2026-04-17 04:22 46.82016 -3.70698 37209 ft 363 kts 191°
2026-04-17 04:23 46.76804 -3.71314 37209 ft 362 kts 190°
2026-04-17 04:23 46.71667 -3.71918 37209 ft 361 kts 190°
2026-04-17 04:24 46.66451 -3.72529 37209 ft 362 kts 190°
2026-04-17 04:24 46.61276 -3.73134 37209 ft 362 kts 190°
2026-04-17 04:25 46.56084 -3.73739 37209 ft 362 kts 190°
2026-04-17 04:25 46.50901 -3.74343 37209 ft 361 kts 190°
2026-04-17 04:26 46.45669 -3.74952 37209 ft 362 kts 190°
2026-04-17 04:26 46.40461 -3.75557 37069 ft 364 kts 190°
2026-04-17 04:27 46.35256 -3.76156 37073 ft 358 kts 191°
2026-04-17 04:27 46.30087 -3.76759 37215 ft 357 kts 190°
2026-04-17 04:28 46.24858 -3.77365 37210 ft 364 kts 190°
2026-04-17 04:28 46.19575 -3.77970 37207 ft 361 kts 190°
2026-04-17 04:29 46.14373 -3.78566 37209 ft 359 kts 190°
2026-04-17 04:29 46.09205 -3.79161 37209 ft 360 kts 190°
2026-04-17 04:30 46.04017 -3.79756 37209 ft 361 kts 190°
2026-04-17 04:30 45.98881 -3.80342 37209 ft 361 kts 190°
2026-04-17 04:31 45.93742 -3.80928 37209 ft 361 kts 190°
2026-04-17 04:31 45.88584 -3.81516 37210 ft 360 kts 190°
2026-04-17 04:32 45.83414 -3.82103 37209 ft 361 kts 190°
2026-04-17 04:32 45.78163 -3.82701 37209 ft 361 kts 190°
2026-04-17 04:33 45.72921 -3.83293 37206 ft 361 kts 190°
2026-04-17 04:33 45.67681 -3.83885 37197 ft 362 kts 190°
2026-04-17 04:34 45.59860 -3.84768 37184 ft 362 kts 190°
2026-04-17 04:34 45.54584 -3.85364 37182 ft 363 kts 190°
2026-04-17 04:35 45.49371 -3.85948 37181 ft 364 kts 190°
2026-04-17 04:35 45.44115 -3.86538 37182 ft 365 kts 190°
2026-04-17 04:36 45.38839 -3.87128 37182 ft 366 kts 190°
2026-04-17 04:36 45.33588 -3.87714 37181 ft 366 kts 190°
2026-04-17 04:37 45.28345 -3.88298 37182 ft 366 kts 190°
2026-04-17 04:37 45.23030 -3.88890 37182 ft 367 kts 189°
2026-04-17 04:38 45.17671 -3.89484 37182 ft 368 kts 190°
2026-04-17 04:38 45.12345 -3.90076 37183 ft 370 kts 189°
2026-04-17 04:39 45.07021 -3.90667 37182 ft 371 kts 189°
2026-04-17 04:39 45.01655 -3.91258 37182 ft 371 kts 189°
2026-04-17 04:40 44.96257 -3.91852 37182 ft 372 kts 189°
2026-04-17 04:40 44.90837 -3.92448 37181 ft 372 kts 189°
2026-04-17 04:41 44.85444 -3.93038 37182 ft 375 kts 189°
2026-04-17 04:41 44.80074 -3.93628 37154 ft 376 kts 189°
2026-04-17 04:42 44.74624 -3.94224 37154 ft 375 kts 189°
2026-04-17 04:42 44.69171 -3.94819 37185 ft 375 kts 189°
2026-04-17 04:43 44.63747 -3.95411 37183 ft 377 kts 189°
2026-04-17 04:43 44.58268 -3.96007 37182 ft 378 kts 189°
2026-04-17 04:44 44.52877 -3.96593 37181 ft 378 kts 189°
2026-04-17 04:44 44.47436 -3.97183 37182 ft 378 kts 189°
2026-04-17 04:45 44.42039 -3.97765 37182 ft 378 kts 189°
2026-04-17 04:45 44.36623 -3.98348 37182 ft 378 kts 189°
2026-04-17 04:46 44.31189 -3.98578 37183 ft 382 kts 182°
2026-04-17 04:46 44.25665 -3.98061 37182 ft 384 kts 181°
2026-04-17 04:47 44.20158 -3.97511 37182 ft 384 kts 181°
2026-04-17 04:47 44.14650 -3.96970 37182 ft 385 kts 181°
2026-04-17 04:48 44.09159 -3.96430 37182 ft 384 kts 181°
2026-04-17 04:48 44.03672 -3.95893 37182 ft 384 kts 181°
2026-04-17 04:49 43.98164 -3.95357 37182 ft 384 kts 181°
2026-04-17 04:49 43.92604 -3.94817 37182 ft 385 kts 181°
2026-04-17 04:50 43.87039 -3.94280 37181 ft 384 kts 181°
2026-04-17 04:50 43.81483 -3.93740 37182 ft 384 kts 181°
2026-04-17 04:51 43.76011 -3.93216 37182 ft 385 kts 181°
2026-04-17 04:51 43.70463 -3.92680 37182 ft 386 kts 181°
2026-04-17 04:52 43.64967 -3.92154 37181 ft 385 kts 181°
2026-04-17 04:52 43.59562 -3.91636 37182 ft 386 kts 181°
2026-04-17 04:53 43.54115 -3.91116 37182 ft 387 kts 181°
2026-04-17 04:55 43.31939 -3.92206 37182 ft 386 kts 189°
2026-04-17 04:55 43.26421 -3.93009 37181 ft 387 kts 189°
2026-04-17 04:56 43.20889 -3.93820 37182 ft 388 kts 189°
2026-04-17 04:56 43.15366 -3.94632 37158 ft 389 kts 189°
2026-04-17 04:57 43.09913 -3.95433 37139 ft 391 kts 189°
2026-04-17 04:57 43.04440 -3.96238 37174 ft 390 kts 189°
2026-04-17 04:58 42.98929 -3.97045 37182 ft 393 kts 189°
2026-04-17 04:58 42.93372 -3.97861 37182 ft 394 kts 189°
2026-04-17 04:59 42.87844 -3.98667 37181 ft 395 kts 189°
2026-04-17 04:59 42.82348 -3.99470 37189 ft 395 kts 189°
2026-04-17 05:00 42.76789 -4.00277 37200 ft 396 kts 189°
2026-04-17 05:00 42.71227 -4.01085 37208 ft 396 kts 189°
2026-04-17 05:01 42.65623 -4.01898 37209 ft 397 kts 188°
2026-04-17 05:01 42.60017 -4.02711 37209 ft 398 kts 188°
2026-04-17 05:02 42.54405 -4.03521 37209 ft 399 kts 188°
2026-04-17 05:02 42.48817 -4.04327 37209 ft 400 kts 188°
2026-04-17 05:03 42.43176 -4.05139 37209 ft 400 kts 188°
2026-04-17 05:03 42.37552 -4.05949 37209 ft 401 kts 188°
2026-04-17 05:04 42.31895 -4.06759 37208 ft 401 kts 188°
2026-04-17 05:04 42.26214 -4.07573 37209 ft 402 kts 188°
2026-04-17 05:05 42.20587 -4.08378 37209 ft 402 kts 188°
2026-04-17 05:05 42.14966 -4.09180 37208 ft 402 kts 188°
2026-04-17 05:06 42.09323 -4.09984 37207 ft 403 kts 188°
2026-04-17 05:06 42.03691 -4.10784 37206 ft 402 kts 188°
2026-04-17 05:07 41.98015 -4.11486 37205 ft 403 kts 187°
2026-04-17 05:07 41.92249 -4.12131 37204 ft 402 kts 187°
2026-04-17 05:08 41.86421 -4.12788 37204 ft 403 kts 187°
2026-04-17 05:08 41.80594 -4.13448 37203 ft 403 kts 187°
2026-04-17 05:09 41.74803 -4.14104 37202 ft 404 kts 187°
2026-04-17 05:09 41.68923 -4.14769 37194 ft 404 kts 187°
2026-04-17 05:10 41.63097 -4.15429 37187 ft 405 kts 187°
2026-04-17 05:10 41.57204 -4.16094 37182 ft 405 kts 187°
2026-04-17 05:11 41.51376 -4.16751 37181 ft 405 kts 187°
2026-04-17 05:11 41.45491 -4.17415 36972 ft 407 kts 187°
2026-04-17 05:12 41.39684 -4.18067 36988 ft 405 kts 187°
2026-04-17 05:12 41.33826 -4.18725 36990 ft 407 kts 187°
2026-04-17 05:13 41.30897 -4.19053 37199 ft 406 kts 187°
2026-04-17 05:13 41.27954 -4.19382 37183 ft 412 kts 187°
2026-04-17 05:13 41.22039 -4.20043 37181 ft 411 kts 187°
2026-04-17 05:14 41.16140 -4.20702 37181 ft 411 kts 187°
2026-04-17 05:14 41.10219 -4.21362 37182 ft 412 kts 187°
2026-04-17 05:15 41.04275 -4.22024 37183 ft 414 kts 186°
2026-04-17 05:15 40.98305 -4.22686 37182 ft 415 kts 186°
2026-04-17 05:16 40.92320 -4.23349 37182 ft 417 kts 186°
2026-04-17 05:16 40.86335 -4.24010 37182 ft 418 kts 186°
2026-04-17 05:17 40.80327 -4.24672 37181 ft 419 kts 186°
2026-04-17 05:17 40.74342 -4.25331 37182 ft 420 kts 186°
2026-04-17 05:18 40.68281 -4.25997 37182 ft 421 kts 186°
2026-04-17 05:18 40.62225 -4.26661 37182 ft 422 kts 186°
2026-04-17 05:19 40.56167 -4.27322 37182 ft 423 kts 186°
2026-04-17 05:19 40.50101 -4.27988 37182 ft 424 kts 186°
2026-04-17 05:20 40.43996 -4.28651 37181 ft 425 kts 186°
2026-04-17 05:20 40.37886 -4.29316 37181 ft 426 kts 186°
2026-04-17 05:21 40.31764 -4.29981 37182 ft 426 kts 186°
2026-04-17 05:21 40.25632 -4.30646 37182 ft 427 kts 186°
2026-04-17 05:22 40.19480 -4.31313 37182 ft 427 kts 186°
2026-04-17 05:22 40.13323 -4.31977 37182 ft 427 kts 186°
2026-04-17 05:23 40.07199 -4.32637 37182 ft 427 kts 186°
2026-04-17 05:23 40.01021 -4.33302 37182 ft 427 kts 186°
2026-04-17 05:24 39.94886 -4.34070 37183 ft 429 kts 189°
2026-04-17 05:24 39.88776 -4.35416 37182 ft 429 kts 191°
2026-04-17 05:25 39.82653 -4.36781 37182 ft 428 kts 191°
2026-04-17 05:25 39.76589 -4.38109 37182 ft 428 kts 190°
2026-04-17 05:26 39.70470 -4.39431 37182 ft 429 kts 190°
2026-04-17 05:26 39.64375 -4.40740 36891 ft 432 kts 190°
2026-04-17 05:27 39.58309 -4.42036 36898 ft 423 kts 190°
2026-04-17 05:27 39.52270 -4.43323 36890 ft 429 kts 190°
2026-04-17 05:28 39.49223 -4.43971 37019 ft 426 kts 190°
2026-04-17 05:28 39.46198 -4.44613 37205 ft 428 kts 190°
2026-04-17 05:28 39.40108 -4.45904 37182 ft 433 kts 190°
2026-04-17 05:29 39.34038 -4.47188 37181 ft 430 kts 190°
2026-04-17 05:29 39.27909 -4.48485 37182 ft 430 kts 190°
2026-04-17 05:30 39.21901 -4.50501 37180 ft 430 kts 203°
2026-04-17 05:30 39.16540 -4.54468 37181 ft 431 kts 214°
2026-04-17 05:31 39.11344 -4.58911 37167 ft 431 kts 214°
2026-04-17 05:31 39.06151 -4.63344 37159 ft 431 kts 214°
2026-04-17 05:32 39.00894 -4.67613 37154 ft 431 kts 208°
2026-04-17 05:32 38.95179 -4.70804 37156 ft 432 kts 201°
2026-04-17 05:33 38.89372 -4.73677 37155 ft 433 kts 201°
2026-04-17 05:33 38.83532 -4.76539 37155 ft 433 kts 201°
2026-04-17 05:34 38.77707 -4.79371 37155 ft 434 kts 201°
2026-04-17 05:34 38.71859 -4.82204 37155 ft 434 kts 201°
2026-04-17 05:35 38.65987 -4.85037 37155 ft 435 kts 201°
2026-04-17 05:35 38.60077 -4.87879 37155 ft 435 kts 201°
2026-04-17 05:36 38.54193 -4.90707 37155 ft 436 kts 201°
2026-04-17 05:36 38.48300 -4.93532 37155 ft 436 kts 201°
2026-04-17 05:37 38.42374 -4.96364 37155 ft 436 kts 201°
2026-04-17 05:37 38.36460 -4.99190 37155 ft 437 kts 201°
2026-04-17 05:38 38.30535 -5.02013 37155 ft 437 kts 201°
2026-04-17 05:38 38.24643 -5.04819 37155 ft 438 kts 201°
2026-04-17 05:39 38.18877 -5.07557 37155 ft 438 kts 201°
2026-04-17 05:39 38.13107 -5.10294 37155 ft 438 kts 201°
2026-04-17 05:40 38.07280 -5.13052 37155 ft 439 kts 201°
2026-04-17 05:40 38.01500 -5.15783 37155 ft 439 kts 201°
2026-04-17 05:41 37.95673 -5.18530 37156 ft 443 kts 201°
2026-04-17 05:41 37.89604 -5.21392 36872 ft 450 kts 201°
2026-04-17 05:42 37.83658 -5.24186 36871 ft 438 kts 202°
2026-04-17 05:42 37.77700 -5.26985 36882 ft 445 kts 202°
2026-04-17 05:43 37.71724 -5.29785 37126 ft 440 kts 202°
2026-04-17 05:43 37.65685 -5.32610 37144 ft 447 kts 202°
2026-04-17 05:44 37.59651 -5.35426 37138 ft 445 kts 202°
2026-04-17 05:44 37.53695 -5.38203 37123 ft 444 kts 202°
2026-04-17 05:45 37.47693 -5.40998 37075 ft 443 kts 202°
2026-04-17 05:45 37.44723 -5.42378 36607 ft 441 kts 202°
2026-04-17 05:45 37.41756 -5.43758 35900 ft 442 kts 202°
2026-04-17 05:46 37.38763 -5.45148 35268 ft 441 kts 202°
2026-04-17 05:46 37.35798 -5.46524 34760 ft 437 kts 202°
2026-04-17 05:46 37.32844 -5.47892 34183 ft 435 kts 201°
2026-04-17 05:46 37.29912 -5.49249 33687 ft 430 kts 201°
2026-04-17 05:47 37.27052 -5.50573 33206 ft 426 kts 201°
2026-04-17 05:47 37.24169 -5.51910 32747 ft 421 kts 201°
2026-04-17 05:47 37.21324 -5.53225 32264 ft 417 kts 201°
2026-04-17 05:47 37.18512 -5.54526 31808 ft 412 kts 200°
2026-04-17 05:48 37.15753 -5.55798 31351 ft 407 kts 200°
2026-04-17 05:48 37.12993 -5.57073 30892 ft 403 kts 200°
2026-04-17 05:48 37.10279 -5.58329 30441 ft 398 kts 200°
2026-04-17 05:48 37.07613 -5.59563 29996 ft 393 kts 200°
2026-04-17 05:49 37.04952 -5.60791 29111 ft 390 kts 199°
2026-04-17 05:49 37.02331 -5.61988 28562 ft 383 kts 199°
2026-04-17 05:49 36.99748 -5.63164 27910 ft 381 kts 199°
2026-04-17 05:49 36.97179 -5.64333 27346 ft 379 kts 199°
2026-04-17 05:50 36.94597 -5.65511 26755 ft 376 kts 199°
2026-04-17 05:50 36.92086 -5.66657 26113 ft 373 kts 199°
2026-04-17 05:50 36.89563 -5.67809 25482 ft 369 kts 199°
2026-04-17 05:50 36.87080 -5.68943 24847 ft 365 kts 199°
2026-04-17 05:51 36.84611 -5.70071 24216 ft 361 kts 199°
2026-04-17 05:51 36.82162 -5.71190 23554 ft 359 kts 199°
2026-04-17 05:51 36.79751 -5.72285 23022 ft 353 kts 199°
2026-04-17 05:51 36.77385 -5.73360 22527 ft 346 kts 199°
2026-04-17 05:52 36.75056 -5.74419 22046 ft 340 kts 200°
2026-04-17 05:52 36.72775 -5.75457 21573 ft 335 kts 200°
2026-04-17 05:52 36.70528 -5.76480 21106 ft 329 kts 200°
2026-04-17 05:52 36.68293 -5.77495 20640 ft 325 kts 200°
2026-04-17 05:53 36.66086 -5.78498 20189 ft 326 kts 200°
2026-04-17 05:53 36.63843 -5.79517 19721 ft 332 kts 201°
2026-04-17 05:53 36.61563 -5.80552 19237 ft 335 kts 201°
2026-04-17 05:53 36.59291 -5.81584 18761 ft 334 kts 201°
2026-04-17 05:54 36.57011 -5.82616 18288 ft 334 kts 201°
2026-04-17 05:54 36.54735 -5.83648 17812 ft 334 kts 201°
2026-04-17 05:54 36.52502 -5.84664 17349 ft 333 kts 201°
2026-04-17 05:54 36.50234 -5.85696 16876 ft 333 kts 201°
2026-04-17 05:55 36.47965 -5.86723 16401 ft 332 kts 201°
2026-04-17 05:55 36.45696 -5.87750 15927 ft 331 kts 201°
2026-04-17 05:55 36.43448 -5.88767 15466 ft 330 kts 201°
2026-04-17 05:55 36.41201 -5.89782 14998 ft 329 kts 200°
2026-04-17 05:56 36.38991 -5.90780 14542 ft 328 kts 200°
2026-04-17 05:56 36.36756 -5.91787 14073 ft 327 kts 200°
2026-04-17 05:56 36.34536 -5.92788 13616 ft 325 kts 200°
2026-04-17 05:56 36.32323 -5.93785 13241 ft 320 kts 200°
2026-04-17 05:57 36.30179 -5.94749 12684 ft 315 kts 200°
2026-04-17 05:57 36.28028 -5.95718 12105 ft 319 kts 199°
2026-04-17 05:57 36.25869 -5.96687 11597 ft 319 kts 199°
2026-04-17 05:57 36.23626 -5.97439 11121 ft 318 kts 185°
2026-04-17 05:58 36.21354 -5.97466 10695 ft 316 kts 177°
2026-04-17 05:58 36.19068 -5.97328 10260 ft 315 kts 177°
2026-04-17 05:58 36.16792 -5.97191 10006 ft 307 kts 177°
2026-04-17 05:59 36.12482 -5.96954 9436 ft 298 kts 178°
2026-04-17 05:59 36.10306 -5.96837 8991 ft 300 kts 178°
2026-04-17 05:59 36.08111 -5.96722 8583 ft 300 kts 178°
2026-04-17 05:59 36.05955 -5.96611 8180 ft 300 kts 178°
2026-04-17 06:00 36.03764 -5.96498 7766 ft 300 kts 178°
2026-04-17 06:00 36.01596 -5.96386 7358 ft 299 kts 179°
2026-04-17 06:00 35.99428 -5.96274 6946 ft 296 kts 179°
2026-04-17 06:00 35.97327 -5.96164 6542 ft 285 kts 179°
2026-04-17 06:01 35.95287 -5.96058 6173 ft 274 kts 179°
2026-04-17 06:01 35.93329 -5.95956 5807 ft 264 kts 179°
2026-04-17 06:01 35.91459 -5.95859 5455 ft 256 kts 179°
2026-04-17 06:01 35.89625 -5.95763 5129 ft 247 kts 179°
2026-04-17 06:02 35.87898 -5.95675 5032 ft 230 kts 180°
2026-04-17 06:02 35.86195 -5.95590 4979 ft 240 kts 180°
2026-04-17 06:02 35.84454 -5.95562 4804 ft 234 kts 189°
2026-04-17 06:02 35.82958 -5.96218 4731 ft 209 kts 220°
2026-04-17 06:03 35.81958 -5.97531 4720 ft 194 kts 235°
2026-04-17 06:03 35.81128 -5.98880 4553 ft 182 kts 236°
2026-04-17 06:03 35.80352 -6.00121 4509 ft 169 kts 235°
2026-04-17 06:03 35.79594 -6.01322 4448 ft 171 kts 235°
2026-04-17 06:04 35.78832 -6.02523 4373 ft 170 kts 235°
2026-04-17 06:04 35.78049 -6.03718 4309 ft 170 kts 229°
2026-04-17 06:04 35.77146 -6.04756 4247 ft 170 kts 225°
2026-04-17 06:04 35.76245 -6.05736 4198 ft 154 kts 225°
2026-04-17 06:05 35.75419 -6.06648 4098 ft 148 kts 226°
2026-04-17 06:05 35.74625 -6.07535 4117 ft 151 kts 226°
2026-04-17 06:05 35.73795 -6.08466 3998 ft 152 kts 226°
2026-04-17 06:05 35.73199 -6.09550 3954 ft 143 kts 255°
2026-04-17 06:06 35.72926 -6.10810 4054 ft 148 kts 257°
2026-04-17 06:06 35.72628 -6.12090 3954 ft 146 kts 255°
2026-04-17 06:06 35.72320 -6.13335 4000 ft 144 kts 255°
2026-04-17 06:06 35.72005 -6.14605 4004 ft 149 kts 255°
2026-04-17 06:07 35.71692 -6.15872 3970 ft 145 kts 255°
2026-04-17 06:07 35.71383 -6.17117 4010 ft 146 kts 255°
2026-04-17 06:07 35.71066 -6.18400 3987 ft 148 kts 255°
2026-04-17 06:07 35.70754 -6.19665 3986 ft 146 kts 255°
2026-04-17 06:08 35.70566 -6.20928 3985 ft 146 kts 275°
2026-04-17 06:08 35.71009 -6.22102 3993 ft 146 kts 314°
2026-04-17 06:08 35.71967 -6.22706 4003 ft 153 kts 347°
2026-04-17 06:08 35.73083 -6.22469 3981 ft 159 kts 26°
2026-04-17 06:09 35.73842 -6.21381 3997 ft 165 kts 68°
2026-04-17 06:09 35.73919 -6.19903 4019 ft 167 kts 93°
2026-04-17 06:09 35.73878 -6.18400 3989 ft 169 kts 90°
2026-04-17 06:09 35.73862 -6.16899 3980 ft 166 kts 90°
2026-04-17 06:10 35.73844 -6.15398 4004 ft 167 kts 90°
2026-04-17 06:10 35.73827 -6.13887 3984 ft 167 kts 90°
2026-04-17 06:10 35.73809 -6.12406 3981 ft 167 kts 90°
2026-04-17 06:10 35.73790 -6.10900 3982 ft 167 kts 90°
2026-04-17 06:11 35.73772 -6.09402 3982 ft 167 kts 90°
2026-04-17 06:11 35.73740 -6.07905 3956 ft 169 kts 91°
2026-04-17 06:11 35.73715 -6.06381 3456 ft 175 kts 91°
2026-04-17 06:11 35.73694 -6.04818 2755 ft 175 kts 92°
2026-04-17 06:12 35.73663 -6.03293 2205 ft 167 kts 92°
2026-04-17 06:12 35.73632 -6.01860 2070 ft 157 kts 92°
2026-04-17 06:12 35.73613 -6.00478 1919 ft 156 kts 92°
2026-04-17 06:12 35.73579 -5.99104 1629 ft 152 kts 92°
2026-04-17 06:13 35.73577 -5.97751 1290 ft 150 kts 87°
2026-04-17 06:13 35.73602 -5.96388 667 ft 153 kts 99°
2026-04-17 06:13 35.73457 -5.95058 197 ft 155 kts 93°
2026-04-17 06:13 35.73317 -5.93742 74 ft 143 kts 96°
2026-04-17 06:14 35.73221 -5.92711 71 ft 82 kts 96°
2026-04-17 06:14 35.73174 -5.92282 71 ft 32 kts 94°
2026-04-17 06:14 35.73157 -5.92057 71 ft 9 kts 97°
2026-04-17 06:14 35.73148 -5.91965 71 ft 11 kts 97°
2026-04-17 06:15 35.73138 -5.91850 71 ft 9 kts 96°
2026-04-17 06:15 35.73096 -5.91762 71 ft 13 kts 140°
2026-04-17 06:15 35.73016 -5.91736 71 ft 8 kts 175°
2026-04-17 06:15 35.72935 -5.91726 71 ft 13 kts 174°
2026-04-17 06:16 35.72821 -5.91715 71 ft 16 kts 176°
2026-04-17 06:16 35.72709 -5.91707 71 ft 14 kts 176°
2026-04-17 06:16 35.72615 -5.91695 71 ft 12 kts 173°
2026-04-17 06:16 35.72530 -5.91685 71 ft 10 kts 172°
2026-04-17 06:17 35.72465 -5.91652 71 ft 8 kts 140°
2026-04-17 06:17 35.72434 -5.91597 71 ft 6 kts 113°
2026-04-17 06:17 35.72426 -5.91537 71 ft 7 kts 89°
2026-04-17 06:17 35.72429 -5.91464 71 ft 9 kts 85°
2026-04-17 06:18 35.72435 -5.91378 71 ft 9 kts 85°
2026-04-17 06:18 35.72437 -5.91334 71 ft 1 kts 85°
2026-04-17 06:18 35.72438 -5.91329 71 ft 0 kts 85°
2026-04-17 06:18 35.72438 -5.91326 71 ft 0 kts 85°
2026-04-17 06:19 35.72440 -5.91299 71 ft 4 kts 79°
2026-04-17 06:19 35.72454 -5.91273 71 ft 4 kts 40°
2026-04-17 06:19 35.72482 -5.91265 71 ft 5 kts
2026-04-17 06:19 35.72524 -5.91263 71 ft 6 kts
2026-04-17 06:20 35.72539 -5.91263 71 ft 0 kts 354°